Regional Weather Roundup
Issued by NWS

Home | Current Version | Previous Version | Text Only | Print | Product List | Glossary Off
Versions: 1 2 3 4 5 6 7 8 9 10 11 12 13 14 15 16 17 18 19 20 21 22 23 24 25 26 27 28 29 30 31 32 33 34 35 36 37 38 39 40 41 42 43 44 45 46 47 48 49 50

578
ASUS43 KDMX 240603
RWRIA

WEATHER ROUNDUP FOR IOWA
NATIONAL WEATHER SERVICE DES MOINES IA
100 AM CDT SUN JUL 24 2016

NOTE: "FAIR" INDICATES FEW OR NO CLOUDS BELOW 12,000 FEET WITH NO
SIGNIFICANT WEATHER AND/OR OBSTRUCTIONS TO VISIBILITY.

* - THESE STATIONS ARE NOT NWS STATIONS...THUS NOT UNDER NWS
QUALITY CONTROL.  THEY ALSO DO NOT REPORT WEATHER SUCH
AS PRECIPITATION OR FOG.

IAZ001>003-012>014-020>022-031>034-043>046-240700-
   NORTHWEST IOWA

CITY           SKY/WX    TMP DP  RH WIND       PRES   REMARKS
CARROLL *      CLOUDY    79  75  89 SW9G16    29.82S HX  82
CHEROKEE *     CLEAR     78  78 100 CALM      29.81R HX  80
DENISON *      CLOUDY    79  75  89 VRB7G15   29.81S HX  82
LE MARS *      PTCLDY    79  77  94 S3        29.81S HX  83
SHELDON *      CLEAR     79  77  94 SW7       29.80R HX  83
SIOUX CITY     CLEAR     79  75  87 SE6       29.80R HX  83
6HR MIN TEMP:  79; 6HR MAX TEMP:  89;

SPENCER        CLEAR     77  75  93 SW5       29.81R
6HR MIN TEMP:  77; 6HR MAX TEMP:  86;

STORM LAKE *   CLEAR     77  75  94 SW7       29.83S
$$

IAZ055>058-069>071-079>083-090>094-240700-
   SOUTHWEST IOWA

CITY           SKY/WX    TMP DP  RH WIND       PRES   REMARKS
ATLANTIC *     CLOUDY    79  73  83 S6        29.84R HX  82
CLARINDA *       N/A     77  75  94 MISG      29.87R
COUNCIL BLFS * CLOUDY    81  75  83 S7        29.84R HX  86
CRESTON *      CLOUDY    79  75  89 S13       29.88S HX  82
HARLAN  *      CLOUDY    77  75  94 S6        29.87S
LAMONI         PTCLDY    79  76  90 S10       29.87F HX  83
6HR MIN TEMP:  79; 6HR MAX TEMP:  86;

RED OAK *      CLOUDY    79  75  89 S6        29.84R HX  82
SHENANDOAH *   MOCLDY    81  75  83 CALM      29.84S HX  86
$$

IAZ047>049-059>061-072>074-084-240700-
   CENTRAL IOWA

CITY           SKY/WX    TMP DP  RH WIND       PRES   REMARKS
AMES           CLOUDY    79  77  94 S6        29.83R HX  83
6HR MIN TEMP:  79; 6HR MAX TEMP:  88;

ANKENY *         N/A    N/A N/A N/A MISG        N/A
BOONE *          N/A     79  75  89 S3        29.83S HX  82
CHARITON *       N/A    N/A N/A N/A MISG        N/A
DES MOINES     CLOUDY    83  77  82 S8        29.83S HX  92
6HR MIN TEMP:  82; 6HR MAX TEMP:  90;

GRINNELL*      CLOUDY    79  75  87 S7        29.87S HX  82
KNOXVILLE *    CLOUDY    81  75  83 S8        29.84S HX  86
MARSHALLTOWN   CLOUDY    80  77  90 S9        29.83S HX  87
6HR MIN TEMP:  80; 6HR MAX TEMP:  88;

NEWTON *       CLOUDY    79  79 100 S7        29.85S HX  83
PELLA *        CLOUDY    80  74  82 S8        29.86S HX  85
PERRY *          N/A     79  75  87 S6        29.83S HX  82
$$

IAZ004>006-015-016-023>025-035-036-240700-
   NORTH CENTRAL IOWA

CITY           SKY/WX    TMP DP  RH WIND       PRES   REMARKS
ALGONA *       PTCLDY    77  77 100 S8        29.81S
ESTHERVILLE    CLEAR     75  75 100 S6        29.80R
6HR MIN TEMP:  75; 6HR MAX TEMP:  83;

FORT DODGE *   CLEAR     81  75  83 S12       29.83S HX  86
MASON CITY     FOG       75  75 100 SE3       29.83S VSB 3/4
6HR MIN TEMP:  75; 6HR MAX TEMP:  79;

FOREST CITY *    N/A     73  73 100 SE3       29.81S FOG
IOWA FALLS *     N/A     78  75  91 S7        29.85S HX  81
$$

IAZ007>011-017>019-026>030-037>042-050>054-066-240700-
   NORTHEAST IOWA

CITY           SKY/WX    TMP DP  RH WIND       PRES   REMARKS
CEDAR RAPIDS   CLEAR     79  79 100 S9        29.86F HX  84
6HR MIN TEMP:  74; 6HR MAX TEMP:  79;

CHARLES CITY * PTCLDY    75  75 100 S6        29.83F
CLINTON *      CLOUDY    74  72  93 S8        29.90S
DECORAH *      PTCLDY    70  70 100 VRB6      29.84F
DUBUQUE        CLEAR     72  70  93 S13       29.89S
6HR MIN TEMP:  71; 6HR MAX TEMP:  72; 6HR PCP: TRACE;

MONTICELLO *   PTCLDY    75  73  94 SE5       29.87F
OELWEIN *      CLOUDY    75  75 100 S10       29.86S
WATERLOO       CLEAR     77  74  90 S7        29.82S
6HR MIN TEMP:  75; 6HR MAX TEMP:  78;

$$

IAZ064-065-067-068-078-240700-
   EAST CENTRAL IOWA

CITY           SKY/WX    TMP DP  RH WIND       PRES   REMARKS
DAVENPORT      PTCLDY    77  73  87 S10       29.90F
6HR MIN TEMP:  74; 6HR MAX TEMP:  85; 6HR PCP:  0.03;

IOWA CITY      CLEAR     81  79  94 S7        29.88F HX  90
6HR MIN TEMP:  78; 6HR MAX TEMP:  88;

MT. PLEASANT * CLEAR     83  82  97 S8        29.90S HX  97
MUSCATINE *    CLEAR     82  77  83 S6        29.88F HX  91
QUAD CITIES    CLOUDY    79  72  79 S9        29.89F HX  82
6HR MIN TEMP:  77; 6HR MAX TEMP:  87;

$$

IAZ062-063-075>077-085>089-095>099-240700-
   SOUTHEAST IOWA

CITY           SKY/WX    TMP DP  RH WIND       PRES   REMARKS
BURLINGTON     PTCLDY    82  78  88 S8        29.90F HX  91
6HR MIN TEMP:  81; 6HR MAX TEMP:  89;

FAIRFIELD *    CLEAR     81  77  89 S8        29.88F HX  88
KEOKUK *       CLOUDY    82  77  83 S7        29.90S HX  91
CENTERVILLE *    N/A     79  77  94 CALM      29.90F HX  83
OTTUMWA        PTCLDY    80  75  84 S7        29.87F HX  85
6HR MIN TEMP:  80; 6HR MAX TEMP:  88;

WASHINGTON *   CLEAR     82  81  94 S12       29.89F HX  95
$$

ABBREVIATIONS USED IN REMARKS
   TC - TEMPERATURES IN CELSIUS
  WCI - WIND CHILL INDEX
   HX - HEAT INDEX
  VSB - VISIBILITY
$$





USA.gov is the U.S. government's official web portal to all federal, state and local government web resources and services.